<?xml version="1.0" encoding="UTF-8"?>
<gpx
version="1.1"
creator="Kashmir3D 9.350 - http://www.kashmir3d.com"
xmlns:xsi="http://www.w3.org/2001/XMLSchema-instance"
xmlns="http://www.topografix.com/GPX/1/1"
xmlns:kashmir3d="http://www.kashmir3d.com/namespace/kashmir3d"
xsi:schemaLocation="http://www.topografix.com/GPX/1/1 http://www.topografix.com/GPX/1/1/gpx.xsd
	http://www.kashmir3d.com/namespace/kashmir3d http://www.kashmir3d.com/namespace/kashmir3d.xsd">
<trk>
 <name>KANNONYAMA.KML(観音山)</name>
 <number>1</number>
 <extensions>
 <kashmir3d:line_color>0000ff</kashmir3d:line_color>
 <kashmir3d:line_size>3</kashmir3d:line_size>
 <kashmir3d:line_style>1</kashmir3d:line_style>
 <kashmir3d:icon>901001</kashmir3d:icon>
 </extensions>
<trkseg>
<trkpt lat="34.774672" lon="135.315630">
 <ele>232.6</ele>
 <time>2020-03-24T14:01:06Z</time>
</trkpt>
<trkpt lat="34.774861" lon="135.315480">
 <ele>234.4</ele>
 <time>2020-03-24T14:01:06Z</time>
</trkpt>
<trkpt lat="34.775033" lon="135.315372">
 <ele>236.1</ele>
 <time>2020-03-24T14:01:06Z</time>
</trkpt>
<trkpt lat="34.775119" lon="135.315340">
 <ele>237.2</ele>
 <time>2020-03-24T14:01:06Z</time>
</trkpt>
<trkpt lat="34.775119" lon="135.315190">
 <ele>237.8</ele>
 <time>2020-03-24T14:01:06Z</time>
</trkpt>
<trkpt lat="34.775170" lon="135.315040">
 <ele>238.7</ele>
 <time>2020-03-24T14:01:06Z</time>
</trkpt>
<trkpt lat="34.775222" lon="135.314890">
 <ele>239.7</ele>
 <time>2020-03-24T14:01:06Z</time>
</trkpt>
<trkpt lat="34.775273" lon="135.314675">
 <ele>241.5</ele>
 <time>2020-03-24T14:01:06Z</time>
</trkpt>
<trkpt lat="34.775273" lon="135.314482">
 <ele>243.1</ele>
 <time>2020-03-24T14:01:07Z</time>
</trkpt>
<trkpt lat="34.775282" lon="135.314160">
 <ele>245.8</ele>
 <time>2020-03-24T14:01:07Z</time>
</trkpt>
<trkpt lat="34.775256" lon="135.313967">
 <ele>248.2</ele>
 <time>2020-03-24T14:01:07Z</time>
</trkpt>
<trkpt lat="34.775213" lon="135.313763">
 <ele>250</ele>
 <time>2020-03-24T14:01:07Z</time>
</trkpt>
<trkpt lat="34.775093" lon="135.313527">
 <ele>252.9</ele>
 <time>2020-03-24T14:01:07Z</time>
</trkpt>
<trkpt lat="34.775024" lon="135.313377">
 <ele>254.5</ele>
 <time>2020-03-24T14:01:07Z</time>
</trkpt>
<trkpt lat="34.774964" lon="135.313194">
 <ele>257.9</ele>
 <time>2020-03-24T14:01:07Z</time>
</trkpt>
<trkpt lat="34.775084" lon="135.313119">
 <ele>257.6</ele>
 <time>2020-03-24T14:01:07Z</time>
</trkpt>
<trkpt lat="34.775316" lon="135.313044">
 <ele>259.1</ele>
 <time>2020-03-24T14:01:07Z</time>
</trkpt>
<trkpt lat="34.775514" lon="135.312969">
 <ele>261</ele>
 <time>2020-03-24T14:01:08Z</time>
</trkpt>
<trkpt lat="34.775685" lon="135.312915">
 <ele>262.9</ele>
 <time>2020-03-24T14:01:08Z</time>
</trkpt>
<trkpt lat="34.775771" lon="135.312905">
 <ele>263.8</ele>
 <time>2020-03-24T14:01:08Z</time>
</trkpt>
<trkpt lat="34.775823" lon="135.312797">
 <ele>264.9</ele>
 <time>2020-03-24T14:01:08Z</time>
</trkpt>
<trkpt lat="34.775814" lon="135.312551">
 <ele>267.9</ele>
 <time>2020-03-24T14:01:08Z</time>
</trkpt>
<trkpt lat="34.775780" lon="135.312411">
 <ele>269.7</ele>
 <time>2020-03-24T14:01:08Z</time>
</trkpt>
<trkpt lat="34.775805" lon="135.312282">
 <ele>271.6</ele>
 <time>2020-03-24T14:01:08Z</time>
</trkpt>
<trkpt lat="34.775857" lon="135.312143">
 <ele>273.7</ele>
 <time>2020-03-24T14:01:08Z</time>
</trkpt>
<trkpt lat="34.776046" lon="135.311961">
 <ele>276.8</ele>
 <time>2020-03-24T14:01:08Z</time>
</trkpt>
<trkpt lat="34.776235" lon="135.311757">
 <ele>280.1</ele>
 <time>2020-03-24T14:01:08Z</time>
</trkpt>
<trkpt lat="34.776346" lon="135.311682">
 <ele>281.8</ele>
 <time>2020-03-24T14:01:09Z</time>
</trkpt>
<trkpt lat="34.776449" lon="135.311607">
 <ele>283.4</ele>
 <time>2020-03-24T14:01:09Z</time>
</trkpt>
<trkpt lat="34.776509" lon="135.311521">
 <ele>284.5</ele>
 <time>2020-03-24T14:01:09Z</time>
</trkpt>
<trkpt lat="34.776544" lon="135.311338">
 <ele>286.7</ele>
 <time>2020-03-24T14:01:09Z</time>
</trkpt>
<trkpt lat="34.776544" lon="135.311199">
 <ele>288.4</ele>
 <time>2020-03-24T14:01:09Z</time>
</trkpt>
<trkpt lat="34.776544" lon="135.311070">
 <ele>290.1</ele>
 <time>2020-03-24T14:01:09Z</time>
</trkpt>
<trkpt lat="34.776475" lon="135.310931">
 <ele>291.9</ele>
 <time>2020-03-24T14:01:09Z</time>
</trkpt>
<trkpt lat="34.776355" lon="135.310856">
 <ele>293.2</ele>
 <time>2020-03-24T14:01:09Z</time>
</trkpt>
<trkpt lat="34.776252" lon="135.310813">
 <ele>294.4</ele>
 <time>2020-03-24T14:01:09Z</time>
</trkpt>
<trkpt lat="34.776149" lon="135.310738">
 <ele>296.3</ele>
 <time>2020-03-24T14:01:09Z</time>
</trkpt>
<trkpt lat="34.776072" lon="135.310501">
 <ele>299.3</ele>
 <time>2020-03-24T14:01:10Z</time>
</trkpt>
<trkpt lat="34.775994" lon="135.310255">
 <ele>303.1</ele>
 <time>2020-03-24T14:01:10Z</time>
</trkpt>
<trkpt lat="34.775831" lon="135.309986">
 <ele>307.1</ele>
 <time>2020-03-24T14:01:10Z</time>
</trkpt>
<trkpt lat="34.775720" lon="135.309847">
 <ele>309.7</ele>
 <time>2020-03-24T14:01:10Z</time>
</trkpt>
<trkpt lat="34.775685" lon="135.309718">
 <ele>311.2</ele>
 <time>2020-03-24T14:01:10Z</time>
</trkpt>
<trkpt lat="34.775720" lon="135.309622">
 <ele>312.7</ele>
 <time>2020-03-24T14:01:10Z</time>
</trkpt>
<trkpt lat="34.775857" lon="135.309525">
 <ele>314.8</ele>
 <time>2020-03-24T14:01:10Z</time>
</trkpt>
<trkpt lat="34.775900" lon="135.309429">
 <ele>315.7</ele>
 <time>2020-03-24T14:01:10Z</time>
</trkpt>
<trkpt lat="34.775900" lon="135.309321">
 <ele>317.2</ele>
 <time>2020-03-24T14:01:10Z</time>
</trkpt>
<trkpt lat="34.775848" lon="135.309203">
 <ele>318.6</ele>
 <time>2020-03-24T14:01:11Z</time>
</trkpt>
<trkpt lat="34.775694" lon="135.309182">
 <ele>320.1</ele>
 <time>2020-03-24T14:01:11Z</time>
</trkpt>
<trkpt lat="34.775514" lon="135.309171">
 <ele>320.5</ele>
 <time>2020-03-24T14:01:11Z</time>
</trkpt>
<trkpt lat="34.775385" lon="135.309150">
 <ele>321.9</ele>
 <time>2020-03-24T14:01:11Z</time>
</trkpt>
<trkpt lat="34.775325" lon="135.309128">
 <ele>322</ele>
 <time>2020-03-24T14:01:11Z</time>
</trkpt>
<trkpt lat="34.775299" lon="135.309021">
 <ele>323.4</ele>
 <time>2020-03-24T14:01:11Z</time>
</trkpt>
<trkpt lat="34.775299" lon="135.308839">
 <ele>326.5</ele>
 <time>2020-03-24T14:01:11Z</time>
</trkpt>
<trkpt lat="34.775325" lon="135.308656">
 <ele>330.5</ele>
 <time>2020-03-24T14:01:11Z</time>
</trkpt>
<trkpt lat="34.775351" lon="135.308506">
 <ele>334.9</ele>
 <time>2020-03-24T14:01:11Z</time>
</trkpt>
<trkpt lat="34.775445" lon="135.308549">
 <ele>335.4</ele>
 <time>2020-03-24T14:01:11Z</time>
</trkpt>
<trkpt lat="34.775539" lon="135.308527">
 <ele>334.8</ele>
 <time>2020-03-24T14:01:12Z</time>
</trkpt>
<trkpt lat="34.775651" lon="135.308463">
 <ele>336.2</ele>
 <time>2020-03-24T14:01:12Z</time>
</trkpt>
<trkpt lat="34.775702" lon="135.308313">
 <ele>338.3</ele>
 <time>2020-03-24T14:01:12Z</time>
</trkpt>
<trkpt lat="34.775728" lon="135.308087">
 <ele>342.3</ele>
 <time>2020-03-24T14:01:12Z</time>
</trkpt>
<trkpt lat="34.775763" lon="135.307873">
 <ele>346.2</ele>
 <time>2020-03-24T14:01:12Z</time>
</trkpt>
<trkpt lat="34.775831" lon="135.307862">
 <ele>346.8</ele>
 <time>2020-03-24T14:01:12Z</time>
</trkpt>
<trkpt lat="34.775874" lon="135.307809">
 <ele>347.6</ele>
 <time>2020-03-24T14:01:12Z</time>
</trkpt>
<trkpt lat="34.775994" lon="135.307744">
 <ele>353.9</ele>
 <time>2020-03-24T14:01:12Z</time>
</trkpt>
<trkpt lat="34.776114" lon="135.307669">
 <ele>357.6</ele>
 <time>2020-03-24T14:01:12Z</time>
</trkpt>
<trkpt lat="34.776149" lon="135.307562">
 <ele>363.6</ele>
 <time>2020-03-24T14:01:13Z</time>
</trkpt>
<trkpt lat="34.776183" lon="135.307454">
 <ele>369.2</ele>
 <time>2020-03-24T14:01:13Z</time>
</trkpt>
<trkpt lat="34.776217" lon="135.307347">
 <ele>378</ele>
 <time>2020-03-24T14:01:13Z</time>
</trkpt>
<trkpt lat="34.776295" lon="135.307347">
 <ele>381.3</ele>
 <time>2020-03-24T14:01:13Z</time>
</trkpt>
<trkpt lat="34.776338" lon="135.307294">
 <ele>384.6</ele>
 <time>2020-03-24T14:01:13Z</time>
</trkpt>
<trkpt lat="34.776346" lon="135.307208">
 <ele>389.5</ele>
 <time>2020-03-24T14:01:13Z</time>
</trkpt>
<trkpt lat="34.776398" lon="135.307176">
 <ele>391.1</ele>
 <time>2020-03-24T14:01:13Z</time>
</trkpt>
<trkpt lat="34.776449" lon="135.307090">
 <ele>396.2</ele>
 <time>2020-03-24T14:01:13Z</time>
</trkpt>
<trkpt lat="34.776466" lon="135.307015">
 <ele>400.6</ele>
 <time>2020-03-24T14:01:13Z</time>
</trkpt>
<trkpt lat="34.776518" lon="135.306950">
 <ele>405</ele>
 <time>2020-03-24T14:01:13Z</time>
</trkpt>
<trkpt lat="34.776569" lon="135.306907">
 <ele>408.6</ele>
 <time>2020-03-24T14:01:14Z</time>
</trkpt>
<trkpt lat="34.776586" lon="135.306821">
 <ele>413.7</ele>
 <time>2020-03-24T14:01:14Z</time>
</trkpt>
<trkpt lat="34.776569" lon="135.306714">
 <ele>413.7</ele>
 <time>2020-03-24T14:01:14Z</time>
</trkpt>
<trkpt lat="34.776569" lon="135.306639">
 <ele>414.3</ele>
 <time>2020-03-24T14:01:14Z</time>
</trkpt>
<trkpt lat="34.776612" lon="135.306521">
 <ele>414.9</ele>
 <time>2020-03-24T14:01:14Z</time>
</trkpt>
<trkpt lat="34.776664" lon="135.306425">
 <ele>414.8</ele>
 <time>2020-03-24T14:01:14Z</time>
</trkpt>
<trkpt lat="34.776689" lon="135.306371">
 <ele>418.8</ele>
 <time>2020-03-24T14:01:14Z</time>
</trkpt>
<trkpt lat="34.776715" lon="135.306231">
 <ele>421.6</ele>
 <time>2020-03-24T14:01:14Z</time>
</trkpt>
<trkpt lat="34.776741" lon="135.306070">
 <ele>422.1</ele>
 <time>2020-03-24T14:01:14Z</time>
</trkpt>
<trkpt lat="34.776741" lon="135.305974">
 <ele>425</ele>
 <time>2020-03-24T14:01:15Z</time>
</trkpt>
<trkpt lat="34.776758" lon="135.305845">
 <ele>430.3</ele>
 <time>2020-03-24T14:01:15Z</time>
</trkpt>
<trkpt lat="34.776758" lon="135.305716">
 <ele>433</ele>
 <time>2020-03-24T14:01:15Z</time>
</trkpt>
<trkpt lat="34.776724" lon="135.305641">
 <ele>435.9</ele>
 <time>2020-03-24T14:01:15Z</time>
</trkpt>
<trkpt lat="34.776681" lon="135.305577">
 <ele>438.3</ele>
 <time>2020-03-24T14:01:15Z</time>
</trkpt>
<trkpt lat="34.776698" lon="135.305470">
 <ele>443.2</ele>
 <time>2020-03-24T14:01:15Z</time>
</trkpt>
<trkpt lat="34.776750" lon="135.305373">
 <ele>446.4</ele>
 <time>2020-03-24T14:01:15Z</time>
</trkpt>
<trkpt lat="34.776707" lon="135.305255">
 <ele>459.4</ele>
 <time>2020-03-24T14:01:15Z</time>
</trkpt>
<trkpt lat="34.776741" lon="135.305212">
 <ele>461.5</ele>
 <time>2020-03-24T14:01:15Z</time>
</trkpt>
<trkpt lat="34.776707" lon="135.305126">
 <ele>462.6</ele>
 <time>2020-03-24T14:01:16Z</time>
</trkpt>
<trkpt lat="34.776698" lon="135.305073">
 <ele>462.6</ele>
 <time>2020-03-24T14:01:16Z</time>
</trkpt>
<trkpt lat="34.776689" lon="135.304944">
 <ele>463.3</ele>
 <time>2020-03-24T14:01:16Z</time>
</trkpt>
<trkpt lat="34.776689" lon="135.304837">
 <ele>464.8</ele>
 <time>2020-03-24T14:01:16Z</time>
</trkpt>
<trkpt lat="34.776681" lon="135.304740">
 <ele>466</ele>
 <time>2020-03-24T14:01:16Z</time>
</trkpt>
<trkpt lat="34.776647" lon="135.304633">
 <ele>468.8</ele>
 <time>2020-03-24T14:01:16Z</time>
</trkpt>
<trkpt lat="34.776664" lon="135.304536">
 <ele>472.6</ele>
 <time>2020-03-24T14:01:16Z</time>
</trkpt>
<trkpt lat="34.776689" lon="135.304429">
 <ele>474.7</ele>
 <time>2020-03-24T14:01:16Z</time>
</trkpt>
<trkpt lat="34.776715" lon="135.304289">
 <ele>475.3</ele>
 <time>2020-03-24T14:01:16Z</time>
</trkpt>
<trkpt lat="34.776664" lon="135.304236">
 <ele>478.7</ele>
 <time>2020-03-24T14:01:16Z</time>
</trkpt>
<trkpt lat="34.776586" lon="135.304193">
 <ele>482.5</ele>
 <time>2020-03-24T14:01:17Z</time>
</trkpt>
<trkpt lat="34.776492" lon="135.304204">
 <ele>484.5</ele>
 <time>2020-03-24T14:01:17Z</time>
</trkpt>
<trkpt lat="34.776398" lon="135.304182">
 <ele>485</ele>
 <time>2020-03-24T14:01:17Z</time>
</trkpt>
<trkpt lat="34.776295" lon="135.304161">
 <ele>487.1</ele>
 <time>2020-03-24T14:01:17Z</time>
</trkpt>
<trkpt lat="34.776183" lon="135.304139">
 <ele>487.4</ele>
 <time>2020-03-24T14:01:17Z</time>
</trkpt>
<trkpt lat="34.776106" lon="135.304129">
 <ele>487.6</ele>
 <time>2020-03-24T14:01:17Z</time>
</trkpt>
<trkpt lat="34.776020" lon="135.304107">
 <ele>488.3</ele>
 <time>2020-03-24T14:01:17Z</time>
</trkpt>
<trkpt lat="34.775926" lon="135.304064">
 <ele>491.8</ele>
 <time>2020-03-24T14:01:17Z</time>
</trkpt>
<trkpt lat="34.775857" lon="135.304021">
 <ele>495.8</ele>
 <time>2020-03-24T14:01:17Z</time>
</trkpt>
<trkpt lat="34.775763" lon="135.304000">
 <ele>497.2</ele>
 <time>2020-03-24T14:01:18Z</time>
</trkpt>
<trkpt lat="34.775720" lon="135.304000">
 <ele>497</ele>
 <time>2020-03-24T14:01:18Z</time>
</trkpt>
<trkpt lat="34.775651" lon="135.304053">
 <ele>497.5</ele>
 <time>2020-03-24T14:01:18Z</time>
</trkpt>
<trkpt lat="34.775531" lon="135.304096">
 <ele>498</ele>
 <time>2020-03-24T14:01:18Z</time>
</trkpt>
<trkpt lat="34.775411" lon="135.304096">
 <ele>500.4</ele>
 <time>2020-03-24T14:01:18Z</time>
</trkpt>
<trkpt lat="34.775351" lon="135.304096">
 <ele>503.4</ele>
 <time>2020-03-24T14:01:18Z</time>
</trkpt>
<trkpt lat="34.775256" lon="135.304118">
 <ele>507.9</ele>
 <time>2020-03-24T14:01:18Z</time>
</trkpt>
<trkpt lat="34.775145" lon="135.304086">
 <ele>516.3</ele>
 <time>2020-03-24T14:01:18Z</time>
</trkpt>
<trkpt lat="34.775024" lon="135.304053">
 <ele>516.7</ele>
 <time>2020-03-24T14:01:18Z</time>
</trkpt>
<trkpt lat="34.774878" lon="135.304032">
 <ele>516.6</ele>
 <time>2020-03-24T14:01:18Z</time>
</trkpt>
<trkpt lat="34.774784" lon="135.304011">
 <ele>518.2</ele>
 <time>2020-03-24T14:01:19Z</time>
</trkpt>
<trkpt lat="34.774681" lon="135.304000">
 <ele>519.2</ele>
 <time>2020-03-24T14:01:19Z</time>
</trkpt>
<trkpt lat="34.774647" lon="135.303850">
 <ele>515.4</ele>
 <time>2020-03-24T14:01:19Z</time>
</trkpt>
<trkpt lat="34.774681" lon="135.303656">
 <ele>515.2</ele>
 <time>2020-03-24T14:01:19Z</time>
</trkpt>
<trkpt lat="34.774664" lon="135.303431">
 <ele>510.9</ele>
 <time>2020-03-24T14:01:19Z</time>
</trkpt>
<trkpt lat="34.774672" lon="135.303302">
 <ele>511</ele>
 <time>2020-03-24T14:01:19Z</time>
</trkpt>
<trkpt lat="34.774672" lon="135.303066">
 <ele>512.6</ele>
 <time>2020-03-24T14:01:19Z</time>
</trkpt>
<trkpt lat="34.774583" lon="135.303139">
 <ele>516.6</ele>
 <time>2020-03-24T14:01:19Z</time>
</trkpt>
<trkpt lat="34.774672" lon="135.303066">
 <ele>512.6</ele>
 <time>2020-03-24T14:01:19Z</time>
</trkpt>
<trkpt lat="34.774672" lon="135.303302">
 <ele>511</ele>
 <time>2020-03-24T14:01:20Z</time>
</trkpt>
<trkpt lat="34.774664" lon="135.303431">
 <ele>510.9</ele>
 <time>2020-03-24T14:01:20Z</time>
</trkpt>
<trkpt lat="34.774681" lon="135.303656">
 <ele>515.2</ele>
 <time>2020-03-24T14:01:20Z</time>
</trkpt>
<trkpt lat="34.774647" lon="135.303850">
 <ele>515.4</ele>
 <time>2020-03-24T14:01:20Z</time>
</trkpt>
<trkpt lat="34.774681" lon="135.304000">
 <ele>519.2</ele>
 <time>2020-03-24T14:01:20Z</time>
</trkpt>
<trkpt lat="34.774784" lon="135.304011">
 <ele>518.2</ele>
 <time>2020-03-24T14:01:20Z</time>
</trkpt>
<trkpt lat="34.774878" lon="135.304032">
 <ele>516.6</ele>
 <time>2020-03-24T14:01:20Z</time>
</trkpt>
<trkpt lat="34.775024" lon="135.304053">
 <ele>516.7</ele>
 <time>2020-03-24T14:01:20Z</time>
</trkpt>
<trkpt lat="34.775145" lon="135.304086">
 <ele>516.3</ele>
 <time>2020-03-24T14:01:20Z</time>
</trkpt>
<trkpt lat="34.775256" lon="135.304118">
 <ele>507.9</ele>
 <time>2020-03-24T14:01:20Z</time>
</trkpt>
<trkpt lat="34.775351" lon="135.304096">
 <ele>503.4</ele>
 <time>2020-03-24T14:01:21Z</time>
</trkpt>
<trkpt lat="34.775411" lon="135.304096">
 <ele>500.4</ele>
 <time>2020-03-24T14:01:21Z</time>
</trkpt>
<trkpt lat="34.775531" lon="135.304096">
 <ele>498</ele>
 <time>2020-03-24T14:01:21Z</time>
</trkpt>
<trkpt lat="34.775651" lon="135.304053">
 <ele>497.5</ele>
 <time>2020-03-24T14:01:21Z</time>
</trkpt>
<trkpt lat="34.775720" lon="135.304000">
 <ele>497</ele>
 <time>2020-03-24T14:01:21Z</time>
</trkpt>
<trkpt lat="34.775763" lon="135.304000">
 <ele>497.2</ele>
 <time>2020-03-24T14:01:21Z</time>
</trkpt>
<trkpt lat="34.775857" lon="135.304021">
 <ele>495.8</ele>
 <time>2020-03-24T14:01:21Z</time>
</trkpt>
<trkpt lat="34.775926" lon="135.304064">
 <ele>491.8</ele>
 <time>2020-03-24T14:01:21Z</time>
</trkpt>
<trkpt lat="34.776020" lon="135.304107">
 <ele>488.3</ele>
 <time>2020-03-24T14:01:21Z</time>
</trkpt>
<trkpt lat="34.776106" lon="135.304129">
 <ele>487.6</ele>
 <time>2020-03-24T14:01:22Z</time>
</trkpt>
<trkpt lat="34.776183" lon="135.304139">
 <ele>487.4</ele>
 <time>2020-03-24T14:01:22Z</time>
</trkpt>
<trkpt lat="34.776295" lon="135.304161">
 <ele>487.1</ele>
 <time>2020-03-24T14:01:22Z</time>
</trkpt>
<trkpt lat="34.776398" lon="135.304182">
 <ele>485</ele>
 <time>2020-03-24T14:01:22Z</time>
</trkpt>
<trkpt lat="34.776492" lon="135.304204">
 <ele>484.5</ele>
 <time>2020-03-24T14:01:22Z</time>
</trkpt>
<trkpt lat="34.776586" lon="135.304193">
 <ele>482.5</ele>
 <time>2020-03-24T14:01:22Z</time>
</trkpt>
<trkpt lat="34.776664" lon="135.304236">
 <ele>478.7</ele>
 <time>2020-03-24T14:01:22Z</time>
</trkpt>
<trkpt lat="34.776715" lon="135.304289">
 <ele>475.3</ele>
 <time>2020-03-24T14:01:22Z</time>
</trkpt>
<trkpt lat="34.776689" lon="135.304429">
 <ele>474.7</ele>
 <time>2020-03-24T14:01:22Z</time>
</trkpt>
<trkpt lat="34.776664" lon="135.304536">
 <ele>472.6</ele>
 <time>2020-03-24T14:01:22Z</time>
</trkpt>
<trkpt lat="34.776647" lon="135.304633">
 <ele>468.8</ele>
 <time>2020-03-24T14:01:23Z</time>
</trkpt>
<trkpt lat="34.776681" lon="135.304740">
 <ele>466</ele>
 <time>2020-03-24T14:01:23Z</time>
</trkpt>
<trkpt lat="34.776689" lon="135.304837">
 <ele>464.8</ele>
 <time>2020-03-24T14:01:23Z</time>
</trkpt>
<trkpt lat="34.776689" lon="135.304944">
 <ele>463.3</ele>
 <time>2020-03-24T14:01:23Z</time>
</trkpt>
<trkpt lat="34.776698" lon="135.305073">
 <ele>462.6</ele>
 <time>2020-03-24T14:01:23Z</time>
</trkpt>
<trkpt lat="34.776707" lon="135.305126">
 <ele>462.6</ele>
 <time>2020-03-24T14:01:23Z</time>
</trkpt>
<trkpt lat="34.776741" lon="135.305212">
 <ele>461.5</ele>
 <time>2020-03-24T14:01:23Z</time>
</trkpt>
<trkpt lat="34.776707" lon="135.305255">
 <ele>459.4</ele>
 <time>2020-03-24T14:01:23Z</time>
</trkpt>
<trkpt lat="34.776750" lon="135.305373">
 <ele>446.4</ele>
 <time>2020-03-24T14:01:23Z</time>
</trkpt>
<trkpt lat="34.776698" lon="135.305470">
 <ele>443.2</ele>
 <time>2020-03-24T14:01:24Z</time>
</trkpt>
<trkpt lat="34.776681" lon="135.305577">
 <ele>438.3</ele>
 <time>2020-03-24T14:01:24Z</time>
</trkpt>
<trkpt lat="34.776724" lon="135.305641">
 <ele>435.9</ele>
 <time>2020-03-24T14:01:24Z</time>
</trkpt>
<trkpt lat="34.776758" lon="135.305716">
 <ele>433</ele>
 <time>2020-03-24T14:01:24Z</time>
</trkpt>
<trkpt lat="34.776758" lon="135.305845">
 <ele>430.3</ele>
 <time>2020-03-24T14:01:24Z</time>
</trkpt>
<trkpt lat="34.776741" lon="135.305974">
 <ele>425</ele>
 <time>2020-03-24T14:01:24Z</time>
</trkpt>
<trkpt lat="34.776741" lon="135.306070">
 <ele>422.1</ele>
 <time>2020-03-24T14:01:24Z</time>
</trkpt>
<trkpt lat="34.776715" lon="135.306231">
 <ele>421.6</ele>
 <time>2020-03-24T14:01:24Z</time>
</trkpt>
<trkpt lat="34.776689" lon="135.306371">
 <ele>418.8</ele>
 <time>2020-03-24T14:01:24Z</time>
</trkpt>
<trkpt lat="34.776664" lon="135.306425">
 <ele>414.8</ele>
 <time>2020-03-24T14:01:24Z</time>
</trkpt>
<trkpt lat="34.776612" lon="135.306521">
 <ele>414.9</ele>
 <time>2020-03-24T14:01:25Z</time>
</trkpt>
<trkpt lat="34.776569" lon="135.306639">
 <ele>414.3</ele>
 <time>2020-03-24T14:01:25Z</time>
</trkpt>
<trkpt lat="34.776569" lon="135.306714">
 <ele>413.7</ele>
 <time>2020-03-24T14:01:25Z</time>
</trkpt>
<trkpt lat="34.776586" lon="135.306821">
 <ele>413.7</ele>
 <time>2020-03-24T14:01:25Z</time>
</trkpt>
<trkpt lat="34.776569" lon="135.306907">
 <ele>408.6</ele>
 <time>2020-03-24T14:01:25Z</time>
</trkpt>
<trkpt lat="34.776518" lon="135.306950">
 <ele>405</ele>
 <time>2020-03-24T14:01:25Z</time>
</trkpt>
<trkpt lat="34.776466" lon="135.307015">
 <ele>400.6</ele>
 <time>2020-03-24T14:01:25Z</time>
</trkpt>
<trkpt lat="34.776449" lon="135.307090">
 <ele>396.2</ele>
 <time>2020-03-24T14:01:25Z</time>
</trkpt>
<trkpt lat="34.776398" lon="135.307176">
 <ele>391.1</ele>
 <time>2020-03-24T14:01:25Z</time>
</trkpt>
<trkpt lat="34.776346" lon="135.307208">
 <ele>389.5</ele>
 <time>2020-03-24T14:01:25Z</time>
</trkpt>
<trkpt lat="34.776338" lon="135.307294">
 <ele>384.6</ele>
 <time>2020-03-24T14:01:26Z</time>
</trkpt>
<trkpt lat="34.776295" lon="135.307347">
 <ele>381.3</ele>
 <time>2020-03-24T14:01:26Z</time>
</trkpt>
<trkpt lat="34.776217" lon="135.307347">
 <ele>378</ele>
 <time>2020-03-24T14:01:26Z</time>
</trkpt>
<trkpt lat="34.776183" lon="135.307454">
 <ele>369.2</ele>
 <time>2020-03-24T14:01:26Z</time>
</trkpt>
<trkpt lat="34.776149" lon="135.307562">
 <ele>363.6</ele>
 <time>2020-03-24T14:01:26Z</time>
</trkpt>
<trkpt lat="34.776114" lon="135.307669">
 <ele>357.6</ele>
 <time>2020-03-24T14:01:26Z</time>
</trkpt>
<trkpt lat="34.775994" lon="135.307744">
 <ele>353.9</ele>
 <time>2020-03-24T14:01:26Z</time>
</trkpt>
<trkpt lat="34.775874" lon="135.307809">
 <ele>347.6</ele>
 <time>2020-03-24T14:01:26Z</time>
</trkpt>
<trkpt lat="34.775831" lon="135.307862">
 <ele>346.8</ele>
 <time>2020-03-24T14:01:26Z</time>
</trkpt>
<trkpt lat="34.775763" lon="135.307873">
 <ele>346.2</ele>
 <time>2020-03-24T14:01:27Z</time>
</trkpt>
<trkpt lat="34.775728" lon="135.308087">
 <ele>342.3</ele>
 <time>2020-03-24T14:01:27Z</time>
</trkpt>
<trkpt lat="34.775702" lon="135.308313">
 <ele>338.3</ele>
 <time>2020-03-24T14:01:27Z</time>
</trkpt>
<trkpt lat="34.775651" lon="135.308463">
 <ele>336.2</ele>
 <time>2020-03-24T14:01:27Z</time>
</trkpt>
<trkpt lat="34.775539" lon="135.308527">
 <ele>334.8</ele>
 <time>2020-03-24T14:01:27Z</time>
</trkpt>
<trkpt lat="34.775445" lon="135.308549">
 <ele>335.4</ele>
 <time>2020-03-24T14:01:27Z</time>
</trkpt>
<trkpt lat="34.775351" lon="135.308506">
 <ele>334.9</ele>
 <time>2020-03-24T14:01:27Z</time>
</trkpt>
<trkpt lat="34.775325" lon="135.308656">
 <ele>330.5</ele>
 <time>2020-03-24T14:01:27Z</time>
</trkpt>
<trkpt lat="34.775299" lon="135.308839">
 <ele>326.5</ele>
 <time>2020-03-24T14:01:27Z</time>
</trkpt>
<trkpt lat="34.775299" lon="135.309021">
 <ele>323.4</ele>
 <time>2020-03-24T14:01:27Z</time>
</trkpt>
<trkpt lat="34.775325" lon="135.309128">
 <ele>322</ele>
 <time>2020-03-24T14:01:28Z</time>
</trkpt>
<trkpt lat="34.775385" lon="135.309150">
 <ele>321.9</ele>
 <time>2020-03-24T14:01:28Z</time>
</trkpt>
<trkpt lat="34.775514" lon="135.309171">
 <ele>320.5</ele>
 <time>2020-03-24T14:01:28Z</time>
</trkpt>
<trkpt lat="34.775694" lon="135.309182">
 <ele>320.1</ele>
 <time>2020-03-24T14:01:28Z</time>
</trkpt>
<trkpt lat="34.775848" lon="135.309203">
 <ele>318.6</ele>
 <time>2020-03-24T14:01:28Z</time>
</trkpt>
<trkpt lat="34.775900" lon="135.309321">
 <ele>317.2</ele>
 <time>2020-03-24T14:01:28Z</time>
</trkpt>
<trkpt lat="34.775900" lon="135.309429">
 <ele>315.7</ele>
 <time>2020-03-24T14:01:28Z</time>
</trkpt>
<trkpt lat="34.775857" lon="135.309525">
 <ele>314.8</ele>
 <time>2020-03-24T14:01:28Z</time>
</trkpt>
<trkpt lat="34.775720" lon="135.309622">
 <ele>312.7</ele>
 <time>2020-03-24T14:01:28Z</time>
</trkpt>
<trkpt lat="34.775685" lon="135.309718">
 <ele>311.2</ele>
 <time>2020-03-24T14:01:29Z</time>
</trkpt>
<trkpt lat="34.775720" lon="135.309847">
 <ele>309.7</ele>
 <time>2020-03-24T14:01:29Z</time>
</trkpt>
<trkpt lat="34.775831" lon="135.309986">
 <ele>307.1</ele>
 <time>2020-03-24T14:01:29Z</time>
</trkpt>
<trkpt lat="34.775994" lon="135.310255">
 <ele>303.1</ele>
 <time>2020-03-24T14:01:29Z</time>
</trkpt>
<trkpt lat="34.776072" lon="135.310501">
 <ele>299.3</ele>
 <time>2020-03-24T14:01:29Z</time>
</trkpt>
<trkpt lat="34.776149" lon="135.310738">
 <ele>296.3</ele>
 <time>2020-03-24T14:01:29Z</time>
</trkpt>
<trkpt lat="34.776252" lon="135.310813">
 <ele>294.4</ele>
 <time>2020-03-24T14:01:29Z</time>
</trkpt>
<trkpt lat="34.776355" lon="135.310856">
 <ele>293.2</ele>
 <time>2020-03-24T14:01:29Z</time>
</trkpt>
<trkpt lat="34.776475" lon="135.310931">
 <ele>291.9</ele>
 <time>2020-03-24T14:01:29Z</time>
</trkpt>
<trkpt lat="34.776544" lon="135.311070">
 <ele>290.1</ele>
 <time>2020-03-24T14:01:29Z</time>
</trkpt>
<trkpt lat="34.776544" lon="135.311199">
 <ele>288.4</ele>
 <time>2020-03-24T14:01:30Z</time>
</trkpt>
<trkpt lat="34.776544" lon="135.311338">
 <ele>286.7</ele>
 <time>2020-03-24T14:01:30Z</time>
</trkpt>
<trkpt lat="34.776509" lon="135.311521">
 <ele>284.5</ele>
 <time>2020-03-24T14:01:30Z</time>
</trkpt>
<trkpt lat="34.776449" lon="135.311607">
 <ele>283.4</ele>
 <time>2020-03-24T14:01:30Z</time>
</trkpt>
<trkpt lat="34.776346" lon="135.311682">
 <ele>281.8</ele>
 <time>2020-03-24T14:01:30Z</time>
</trkpt>
<trkpt lat="34.776235" lon="135.311757">
 <ele>280.1</ele>
 <time>2020-03-24T14:01:30Z</time>
</trkpt>
<trkpt lat="34.776046" lon="135.311961">
 <ele>276.8</ele>
 <time>2020-03-24T14:01:30Z</time>
</trkpt>
<trkpt lat="34.775857" lon="135.312143">
 <ele>273.7</ele>
 <time>2020-03-24T14:01:30Z</time>
</trkpt>
<trkpt lat="34.775805" lon="135.312282">
 <ele>271.6</ele>
 <time>2020-03-24T14:01:30Z</time>
</trkpt>
<trkpt lat="34.775780" lon="135.312411">
 <ele>269.7</ele>
 <time>2020-03-24T14:01:30Z</time>
</trkpt>
<trkpt lat="34.775814" lon="135.312551">
 <ele>267.9</ele>
 <time>2020-03-24T14:01:31Z</time>
</trkpt>
<trkpt lat="34.775823" lon="135.312797">
 <ele>264.9</ele>
 <time>2020-03-24T14:01:31Z</time>
</trkpt>
<trkpt lat="34.775771" lon="135.312905">
 <ele>263.8</ele>
 <time>2020-03-24T14:01:31Z</time>
</trkpt>
<trkpt lat="34.775685" lon="135.312915">
 <ele>262.9</ele>
 <time>2020-03-24T14:01:31Z</time>
</trkpt>
<trkpt lat="34.775514" lon="135.312969">
 <ele>261</ele>
 <time>2020-03-24T14:01:31Z</time>
</trkpt>
<trkpt lat="34.775316" lon="135.313044">
 <ele>259.1</ele>
 <time>2020-03-24T14:01:31Z</time>
</trkpt>
<trkpt lat="34.775084" lon="135.313119">
 <ele>257.6</ele>
 <time>2020-03-24T14:01:31Z</time>
</trkpt>
<trkpt lat="34.774964" lon="135.313194">
 <ele>257.9</ele>
 <time>2020-03-24T14:01:31Z</time>
</trkpt>
<trkpt lat="34.775024" lon="135.313377">
 <ele>254.5</ele>
 <time>2020-03-24T14:01:31Z</time>
</trkpt>
<trkpt lat="34.775093" lon="135.313527">
 <ele>252.9</ele>
 <time>2020-03-24T14:01:32Z</time>
</trkpt>
<trkpt lat="34.775213" lon="135.313763">
 <ele>250</ele>
 <time>2020-03-24T14:01:32Z</time>
</trkpt>
<trkpt lat="34.775256" lon="135.313967">
 <ele>248.2</ele>
 <time>2020-03-24T14:01:32Z</time>
</trkpt>
<trkpt lat="34.775282" lon="135.314160">
 <ele>245.8</ele>
 <time>2020-03-24T14:01:32Z</time>
</trkpt>
<trkpt lat="34.775273" lon="135.314482">
 <ele>243.1</ele>
 <time>2020-03-24T14:01:32Z</time>
</trkpt>
<trkpt lat="34.775273" lon="135.314675">
 <ele>241.5</ele>
 <time>2020-03-24T14:01:32Z</time>
</trkpt>
<trkpt lat="34.775222" lon="135.314890">
 <ele>239.7</ele>
 <time>2020-03-24T14:01:32Z</time>
</trkpt>
<trkpt lat="34.775170" lon="135.315040">
 <ele>238.7</ele>
 <time>2020-03-24T14:01:32Z</time>
</trkpt>
<trkpt lat="34.775119" lon="135.315190">
 <ele>237.8</ele>
 <time>2020-03-24T14:01:32Z</time>
</trkpt>
<trkpt lat="34.775119" lon="135.315340">
 <ele>237.2</ele>
 <time>2020-03-24T14:01:32Z</time>
</trkpt>
<trkpt lat="34.775033" lon="135.315372">
 <ele>236.1</ele>
 <time>2020-03-24T14:01:33Z</time>
</trkpt>
<trkpt lat="34.774861" lon="135.315480">
 <ele>234.4</ele>
 <time>2020-03-24T14:01:33Z</time>
</trkpt>
<trkpt lat="34.774672" lon="135.315630">
 <ele>232.6</ele>
 <time>2020-03-24T14:01:33Z</time>
</trkpt>
</trkseg>
</trk>
</gpx>

